Wind_Speed
42 43 44 44 45 46 48 49 51 52 53 53 54 55 56 57 59 60 61 62 62 63 64 64 65 65 66 66 66 67 67 67 68 68 68 69 69 69 70 71 72 73 73 72 72 73 75 77 79 81 82 84 84 84 83 84 84 84 84 83 83 83 83 83 80 76 74 73 72 72 72 73 73 74 74 75 75 76 76 76 75 73 72 70 69
44 44 45 46 47 48 50 51 52 52 53 54 55 56 57 58 60 61 62 62 63 64 64 65 66 66 66 66 66 67 68 68 68 68 69 69 69 70 71 72 73 74 74 74 74 75 77 79 81 82 83 84 84 84 84 84 84 84 84 83 83 84 84 82 79 75 71 71 71 72 73 73 73 74 74 75 75 74 74 74 73 71 70 68 67
45 46 47 47 49 50 51 51 52 52 53 54 55 56 58 59 60 61 62 63 64 65 66 67 66 66 66 66 67 67 68 68 68 68 69 69 70 71 72 73 74 75 75 75 76 78 79 81 82 84 84 85 84 84 84 85 85 84 84 84 84 84 83 80 77 73 70 69 70 71 72 73 73 74 74 74 74 73 72 72 71 70 69 67 66
47 48 48 48 49 50 50 50 51 52 53 54 56 57 58 60 61 62 64 65 66 66 67 66 66 65 66 66 67 67 68 68 68 69 69 70 71 73 74 74 75 75 76 77 78 80 81 83 84 85 85 85 84 84 84 84 84 84 84 84 84 84 82 79 75 72 70 69 70 71 72 72 73 73 74 74 73 72 72 71 70 69 67 66 65
48 48 49 49 50 50 50 51 52 53 54 55 57 58 60 62 63 64 65 65 65 65 65 65 65 65 66 66 67 67 68 68 69 69 70 71 73 74 75 75 76 76 77 79 80 81 83 83 84 85 85 85 85 84 84 84 84 84 84 85 85 83 80 76 73 71 70 69 70 71 72 72 73 73 74 74 73 71 71 70 69 68 66 65 64
49 50 50 51 51 51 52 53 54 54 56 57 59 61 63 64 64 64 63 64 64 64 65 65 65 66 66 67 67 68 68 69 70 71 72 73 75 76 76 76 76 78 79 81 82 83 83 84 84 85 85 85 84 84 84 84 84 84 85 85 84 82 78 74 72 70 70 70 70 71 71 72 72 72 73 73 72 71 70 69 68 67 66 65 64
51 51 52 52 52 52 53 54 56 57 59 61 63 63 63 63 62 61 62 63 64 64 65 65 66 67 67 68 68 68 69 71 72 73 74 75 76 77 76 77 78 80 81 82 83 84 84 84 84 84 84 84 84 83 83 84 84 85 85 85 83 80 76 73 71 70 70 70 71 71 71 72 72 72 73 72 72 72 71 69 67 66 65 65 65
51 52 52 53 53 54 56 57 59 60 61 62 62 61 59 60 61 62 63 64 65 65 66 67 67 68 68 68 69 71 72 73 74 74 75 77 77 77 77 78 80 81 82 83 84 84 84 84 84 84 84 83 83 83 83 84 85 85 85 84 81 78 74 71 70 70 70 70 70 71 71 71 71 72 72 71 71 71 71 70 69 67 65 65 66
52 53 54 55 56 57 59 60 60 61 61 61 60 59 58 59 62 65 66 66 66 66 67 68 68 68 68 69 72 73 74 74 75 76 77 78 78 78 78 80 81 82 83 83 84 84 84 84 83 83 83 82 82 82 83 84 85 85 85 83 79 75 72 70 70 70 70 70 70 71 71 70 71 72 71 71 71 71 70 70 70 69 67 65 65
55 56 57 57 58 59 59 60 60 61 61 60 60 60 60 60 63 65 67 68 68 68 69 69 69 68 69 71 73 74 75 76 78 78 79 79 78 79 80 81 81 82 83 84 84 84 83 83 83 83 82 82 82 83 84 85 85 85 84 80 77 73 71 70 69 69 70 70 70 70 70 70 70 71 70 70 70 70 70 70 70 70 69 67 65
56 57 57 58 59 60 60 61 61 61 61 60 61 62 62 62 63 64 65 68 70 71 72 70 69 69 71 73 74 75 77 79 79 79 80 79 79 79 80 81 82 83 83 83 83 83 83 82 82 82 82 82 83 83 84 85 85 84 81 78 74 71 70 69 69 69 70 69 70 70 70 69 69 70 70 69 69 69 69 70 70 70 70 69 66
57 57 58 59 60 61 61 62 62 61 61 61 62 62 63 62 62 63 65 69 73 74 72 70 70 72 73 74 75 77 79 80 79 79 80 79 79 80 81 82 83 83 83 83 83 82 82 82 82 82 83 83 83 83 84 85 84 82 79 75 72 70 69 69 69 69 69 69 69 69 69 69 69 69 69 69 68 68 69 69 70 70 70 69 68
56 57 58 60 61 61 62 62 61 62 63 63 62 61 61 62 64 67 69 72 74 73 72 73 74 74 74 73 75 78 79 79 79 79 79 79 80 81 82 82 83 83 83 83 83 82 82 82 82 82 83 83 83 84 84 84 83 80 76 73 71 70 69 69 69 69 69 69 68 68 68 68 68 68 69 69 68 68 68 69 69 70 69 68 68
54 56 57 59 60 61 61 61 61 62 62 60 58 58 62 67 70 72 72 73 74 74 75 76 76 74 73 74 77 79 79 78 78 78 79 80 81 81 82 83 83 83 83 83 82 81 82 82 82 83 83 83 84 84 84 84 81 78 74 71 70 69 69 69 69 68 69 68 68 67 67 67 68 68 69 68 68 68 68 68 68 69 68 68 67
55 56 57 58 59 59 60 60 60 59 58 59 61 63 66 69 70 72 73 75 76 76 76 76 75 75 75 77 78 79 78 77 77 78 80 81 81 82 82 83 83 83 82 82 81 81 82 83 83 83 83 83 84 84 84 82 79 75 72 70 69 69 69 68 68 68 68 68 67 66 66 67 68 68 68 68 68 68 67 68 68 68 68 67 66
57 57 58 58 58 58 58 57 56 55 57 61 63 64 66 69 71 74 76 77 76 76 77 77 78 78 78 78 79 78 76 76 77 79 80 81 82 82 83 83 83 82 81 81 81 81 82 83 83 83 83 83 84 84 83 80 76 73 70 69 69 69 68 67 67 68 68 67 67 67 67 67 68 68 68 68 68 67 67 68 68 68 68 67 65
58 58 57 57 56 56 55 55 54 54 56 58 60 63 68 73 76 78 78 77 77 78 79 80 79 79 78 78 78 76 76 76 78 79 81 82 82 83 82 82 82 81 80 80 80 81 82 83 83 83 82 82 83 83 81 77 74 71 70 69 70 69 67 67 67 67 67 67 67 67 67 68 68 68 68 68 68 67 67 67 68 68 67 67 66
58 58 57 57 56 55 54 53 54 54 56 59 63 68 73 77 79 79 78 78 79 79 78 78 78 78 78 77 77 76 75 77 78 80 81 82 82 82 82 81 81 80 79 79 80 81 82 82 82 82 82 82 81 80 78 75 72 70 69 70 70 68 66 66 67 67 67 67 67 67 68 68 69 68 68 68 67 67 67 67 67 67 67 67 66
59 59 59 58 56 54 53 53 54 57 61 66 70 74 77 78 78 78 77 78 77 77 77 78 77 77 77 76 76 75 76 77 79 80 81 82 82 82 81 81 80 79 78 79 81 81 81 81 81 82 81 80 79 77 75 74 72 70 70 71 69 67 66 66 66 66 67 67 67 68 68 68 68 68 68 67 67 67 67 67 67 67 67 67 66
61 61 60 59 57 55 54 55 58 62 66 70 73 75 76 76 76 76 77 78 78 78 78 78 76 76 75 75 75 76 77 78 79 80 81 82 82 81 81 80 79 78 79 80 81 81 80 80 80 80 79 78 76 75 74 73 72 71 71 70 68 67 66 66 66 66 67 68 68 68 68 68 68 67 67 67 67 67 67 67 67 67 67 66 66
62 61 60 58 57 56 56 58 61 65 70 73 75 76 76 77 78 80 81 82 82 81 78 76 75 74 74 75 76 76 77 77 78 79 80 81 81 80 80 79 79 79 80 80 80 79 79 79 78 78 77 76 75 74 73 72 72 72 70 68 67 67 66 66 66 67 67 68 69 68 68 69 69 68 67 67 67 67 67 66 67 67 67 66 66
60 59 58 57 57 57 58 61 65 69 73 77 78 79 80 81 83 84 85 85 83 79 76 74 74 74 75 75 76 76 77 77 77 78 79 79 80 80 80 79 79 80 80 80 79 79 78 77 76 75 75 74 74 74 74 73 72 71 69 67 66 67 67 67 67 67 67 69 69 69 69 70 69 68 68 67 67 67 66 66 67 67 67 66 66
59 59 58 58 57 58 61 64 68 71 75 78 80 81 82 83 85 85 84 81 77 75 73 74 74 74 74 75 75 75 76 76 77 77 78 78 79 79 80 80 80 81 80 79 79 78 76 75 74 74 74 74 74 74 74 73 72 69 68 67 67 67 68 68 67 67 68 69 70 70 70 70 69 69 69 68 67 67 67 66 66 67 67 66 66
61 60 59 58 59 61 64 68 71 73 75 78 80 81 83 83 83 80 77 75 73 73 73 74 74 74 74 74 74 75 75 76 77 77 77 78 78 79 80 81 81 81 80 78 77 76 75 75 74 74 75 75 75 74 73 72 70 69 67 67 67 68 69 69 68 69 70 70 70 70 70 69 70 70 69 68 67 67 67 67 67 67 67 65 65
61 59 59 60 61 64 67 70 72 75 78 80 81 81 80 79 77 75 74 73 73 73 73 73 74 74 74 75 75 75 76 77 77 77 77 77 78 79 80 80 80 80 79 77 76 76 75 75 75 76 76 76 75 74 71 70 69 68 68 68 69 70 70 70 70 71 71 71 71 71 70 70 70 70 69 68 68 67 67 67 67 67 67 65 63
59 59 59 61 64 67 70 72 75 77 79 80 79 77 76 74 74 73 73 73 72 73 73 74 75 76 76 76 76 77 77 77 76 76 77 78 78 79 79 78 78 78 78 77 77 77 77 77 78 78 77 76 74 72 70 69 68 68 69 69 70 71 71 71 72 73 73 73 73 72 71 71 71 70 69 68 68 67 67 67 67 67 66 65 63
59 59 61 63 65 69 72 74 76 76 76 76 75 74 74 73 73 73 73 74 74 75 76 76 77 77 77 77 77 77 77 77 76 77 77 77 77 77 76 76 76 76 77 78 79 80 81 81 80 79 77 75 72 70 69 68 68 69 69 70 72 73 73 73 74 75 75 75 74 73 72 71 70 70 70 69 68 68 68 68 67 66 65 64 62
59 60 63 66 68 71 73 74 75 75 75 75 74 74 74 74 74 75 75 76 76 77 77 78 78 78 78 78 77 77 77 77 77 77 77 76 75 74 74 74 75 76 78 80 81 82 83 82 80 78 75 73 71 70 69 68 68 69 70 71 72 73 74 75 76 76 76 75 75 74 72 71 70 70 70 69 69 69 69 68 66 64 64 63 62
61 63 66 68 70 72 73 74 74 74 74 74 74 74 74 75 75 76 76 77 77 77 78 77 77 77 77 77 77 77 76 76 76 75 75 74 73 73 73 75 76 78 80 82 83 83 82 80 77 75 73 72 71 70 70 70 70 71 72 72 74 74 75 76 77 76 76 76 75 74 72 71 71 70 70 70 69 69 68 66 64 63 63 62 62
62 64 66 67 69 70 70 71 71 71 72 73 73 74 74 75 75 76 76 76 76 76 76 76 77 77 76 76 76 76 75 75 74 74 73 73 73 74 74 76 78 80 81 82 82 81 79 77 75 73 72 72 71 71 72 72 73 73 74 75 75 76 77 78 78 77 77 77 76 74 73 72 71 71 70 69 68 67 66 65 64 64 63 62 61
63 64 65 66 67 68 68 69 70 70 71 72 73 74 74 75 75 75 75 75 75 76 76 76 76 76 76 76 76 75 74 74 73 73 73 73 74 75 76 78 79 81 82 82 81 79 77 76 74 73 72 72 72 73 74 74 75 75 76 77 78 79 80 80 80 80 79 78 77 75 74 73 71 70 69 68 66 65 65 65 64 64 63 62 60
64 65 65 66 67 67 68 69 70 71 71 72 73 73 73 74 74 74 74 75 75 76 76 76 76 76 75 74 74 73 73 73 73 74 75 76 77 78 79 80 81 82 82 82 80 78 76 75 73 73 73 74 74 75 75 76 77 78 78 79 80 80 81 81 81 81 80 79 78 76 75 73 71 69 68 66 65 64 64 64 64 63 62 60 59
64 65 66 66 67 67 68 69 69 70 71 71 71 72 72 73 74 74 75 75 76 76 76 75 74 73 72 71 71 71 72 73 74 76 77 78 79 81 81 82 82 82 81 80 78 76 75 74 73 73 74 75 76 76 77 78 79 79 80 81 81 82 82 82 82 82 81 79 78 77 74 72 70 68 67 66 65 64 64 63 63 63 61 60 59
64 64 65 66 66 67 67 68 68 69 70 70 71 72 72 73 74 74 75 75 74 74 73 72 71 70 70 71 72 73 74 76 77 78 79 80 81 81 81 81 80 79 78 77 76 75 75 75 75 75 76 76 77 78 79 79 80 81 82 82 83 82 82 82 82 82 81 80 78 77 74 72 70 69 68 67 66 65 64 64 64 63 62 61 61
64 65 65 65 66 67 67 68 69 69 70 71 71 72 72 73 73 73 73 72 71 70 70 69 69 70 71 73 75 77 78 79 80 80 81 81 81 81 80 79 78 77 76 76 76 76 76 76 77 77 78 79 79 80 81 82 82 83 83 83 83 83 83 83 82 82 81 80 79 77 76 74 73 72 71 70 69 68 67 66 66 65 64 63 63
65 65 65 66 67 67 68 69 70 70 71 71 71 71 71 71 70 69 69 68 68 69 69 70 71 73 74 76 78 80 81 82 82 82 82 81 80 80 79 78 77 76 75 76 76 77 78 79 79 80 81 82 82 83 84 84 85 85 85 85 84 84 84 83 83 82 81 81 79 78 77 75 74 74 73 72 71 70 69 68 67 66 65 64 63
65 65 66 66 67 68 69 69 70 70 70 69 69 69 68 67 67 67 67 67 68 70 72 73 75 76 78 80 81 82 83 84 84 83 82 81 79 78 77 77 76 76 76 77 78 79 80 81 82 83 83 84 85 85 86 86 86 86 85 85 85 85 84 84 82 81 80 79 77 75 73 72 71 71 70 69 67 66 65 65 64 64 63 63 62
64 65 66 67 67 68 68 67 67 67 66 66 66 65 65 66 66 67 68 69 70 72 74 76 78 80 82 83 84 85 85 85 84 83 81 80 78 77 77 77 77 78 78 79 80 81 81 82 83 84 85 85 86 86 86 86 85 86 85 85 84 84 82 81 79 78 76 74 72 70 69 67 67 67 66 64 62 60 59 59 58 58 57 57 56
64 64 65 65 65 64 64 63 63 63 63 63 64 64 65 66 67 68 69 71 73 75 77 80 82 84 85 86 87 86 86 85 84 82 81 80 79 78 78 78 79 79 80 81 81 82 82 83 84 84 85 85 85 85 84 84 85 85 84 83 81 79 78 76 75 73 71 69 67 66 65 64 64 62 60 58 57 55 54 53 52 51 50 49 49
62 62 62 62 61 61 61 61 61 61 62 62 63 64 65 66 68 70 72 74 77 79 81 83 85 86 87 88 87 86 85 84 83 82 81 80 79 79 79 79 79 80 80 81 82 82 83 83 83 83 83 83 83 83 83 83 82 81 80 78 76 74 72 70 70 69 68 66 65 63 62 61 60 57 55 53 51 50 49 48 47 46 44 43 42
60 60 60 59 59 59 59 59 60 60 61 62 63 65 67 69 72 74 77 79 81 83 85 86 87 87 88 88 87 86 85 83 81 80 79 78 78 77 78 78 79 79 80 81 81 81 81 81 81 81 81 81 81 81 80 78 77 75 73 72 70 68 67 66 66 66 66 65 63 62 60 59 56 53 50 48 46 45 44 43 42 41 40 39 37
58 57 57 56 56 57 57 58 59 60 62 64 66 69 71 74 76 78 81 83 85 86 87 87 87 88 88 87 86 85 83 81 79 77 76 75 75 75 76 77 78 79 79 79 78 78 78 78 78 79 79 78 77 75 74 72 71 69 67 66 65 64 63 63 64 64 64 64 63 61 59 56 53 49 46 44 42 41 39 38 36 36 35 35 33
54 54 54 55 55 56 58 59 61 63 65 68 70 73 75 78 80 82 84 86 87 87 88 88 88 87 86 85 83 81 79 77 75 74 74 74 74 75 76 77 77 76 76 75 75 74 75 75 75 75 73 72 70 69 67 66 64 63 62 61 60 61 61 62 62 63 62 60 58 55 52 49 46 44 41 39 38 36 34 33 32 32 31 31 29
52 53 54 56 57 58 60 62 64 67 69 72 75 77 80 82 84 85 86 87 88 88 88 87 85 83 81 79 77 76 75 74 73 73 73 73 74 74 74 73 73 73 72 72 72 72 72 71 69 68 67 65 64 62 61 59 58 57 56 56 57 58 60 60 58 56 53 50 47 44 41 39 38 36 35 34 33 31 29 28 28 28 28 26 25
54 55 57 58 60 61 63 66 68 71 73 76 78 81 82 84 85 86 87 87 87 86 84 81 78 76 74 73 72 72 72 72 72 72 72 71 71 70 70 70 70 70 70 70 70 68 66 64 62 61 60 59 58 56 55 54 53 52 52 53 54 56 55 51 48 44 42 39 37 34 31 30 29 29 29 29 27 26 25 25 24 24 23 22 21
57 58 59 61 63 65 67 70 72 75 77 79 81 82 83 85 86 86 85 84 82 79 77 74 72 71 71 70 70 69 69 69 69 69 69 68 68 68 68 68 68 68 68 67 65 62 59 57 55 54 53 52 52 51 50 49 47 47 48 49 50 48 44 39 37 35 33 30 28 25 23 23 24 24 24 23 22 21 21 21 21 20 20 19 18
59 61 62 64 66 68 71 73 75 77 79 80 81 83 84 84 84 83 81 79 77 74 72 71 70 70 70 69 68 67 67 67 67 66 66 65 65 65 65 65 65 65 64 62 59 56 53 50 48 46 46 47 47 46 45 44 42 42 43 44 42 37 33 31 30 28 25 21 19 17 17 18 19 19 18 18 17 17 17 18 18 17 16 15 15
61 63 65 67 70 72 74 75 77 78 79 81 82 83 83 82 81 79 78 76 74 72 71 70 70 70 69 68 67 66 66 65 65 64 63 62 62 63 63 63 63 62 59 56 52 49 45 43 40 40 40 41 42 41 40 39 38 38 38 38 34 29 26 25 23 20 17 14 13 12 13 14 14 14 14 14 14 14 15 15 15 14 13 13 13
64 66 69 71 72 74 75 76 78 79 80 81 82 82 81 79 78 77 75 74 72 71 71 70 69 68 68 67 66 65 64 63 62 61 60 60 60 61 62 62 60 57 53 49 45 41 38 36 35 35 36 36 37 36 35 34 34 33 33 32 29 25 22 20 18 15 12 10 9 9 9 10 11 11 11 11 12 12 13 12 12 11 11 11 12
68 70 71 73 74 75 76 77 79 80 81 82 82 81 79 77 76 75 74 72 71 70 69 68 67 66 65 65 64 63 61 60 59 59 59 60 60 61 60 57 54 50 46 42 38 35 33 31 31 31 32 32 32 32 31 30 29 29 28 27 25 22 19 16 13 11 9 7 6 6 7 8 8 9 9 9 10 10 10 10 9 9 9 10 10
70 72 73 74 75 76 77 79 80 81 82 82 81 79 77 76 75 74 73 71 70 68 67 65 64 63 62 61 60 60 59 59 59 59 59 60 59 57 54 50 46 43 40 36 33 31 29 29 29 29 29 28 28 28 28 27 25 24 23 22 21 19 16 13 10 7 5 3 3 4 5 6 6 6 7 8 8 8 8 7 7 8 8 8 8
Wind_Direction
264 263 261 260 261 261 262 263 265 267 269 271 273 275 277 278 279 279 280 281 282 284 285 287 288 289 289 290 290 291 292 293 294 296 297 297 298 299 300 301 301 302 303 304 305 305 305 306 306 307 307 306 307 307 308 308 308 308 308 308 309 310 312 312 312 311 309 307 307 307 308 309 309 310 311 312 313 314 315 316 317 317 315 314 312
264 263 262 262 262 263 264 265 268 270 272 274 276 277 278 279 279 280 281 283 284 285 287 288 288 289 289 290 290 291 292 293 295 296 296 297 299 300 300 301 302 302 303 304 305 305 305 305 305 306 306 306 306 307 308 308 308 308 308 309 310 311 312 312 312 310 308 307 307 308 309 309 310 311 312 313 314 315 316 317 317 317 315 313 312
266 264 264 263 264 265 267 269 271 273 274 275 276 277 278 279 280 281 282 284 285 286 287 287 288 288 289 289 290 291 292 294 295 296 297 298 299 300 301 301 302 303 304 304 304 304 304 305 305 305 305 306 307 307 308 308 308 308 309 310 311 312 313 312 310 309 308 307 307 308 309 310 311 311 312 313 315 316 317 317 317 317 315 314 313
268 268 268 268 268 270 271 272 273 274 275 276 277 278 279 280 281 282 283 285 286 286 287 287 287 288 288 289 290 291 293 295 296 297 297 298 299 300 301 301 302 303 303 303 303 303 304 304 304 305 305 306 307 308 308 308 308 308 310 311 312 312 312 311 309 308 307 307 308 308 309 310 311 312 312 314 315 316 317 318 318 317 316 315 315
270 270 271 271 272 272 273 273 274 275 275 276 277 278 279 281 282 284 285 285 285 285 286 286 287 288 288 289 291 294 295 296 297 297 298 298 299 300 301 301 302 303 303 302 302 303 303 303 304 305 305 306 307 307 307 308 308 309 310 311 312 312 311 309 308 307 307 308 308 309 310 311 311 312 313 314 315 317 318 318 318 318 316 316 315
269 270 271 271 272 272 273 273 274 275 275 276 278 279 281 282 283 284 285 285 285 285 286 287 287 288 290 292 294 295 296 297 297 297 298 298 299 300 300 301 302 302 301 301 301 302 303 303 304 305 305 306 307 307 307 308 309 310 311 311 312 311 310 308 307 307 308 308 309 310 310 311 312 312 313 315 316 317 318 318 319 318 317 316 315
270 270 271 271 272 272 272 273 274 275 276 278 279 281 282 283 283 284 285 286 286 286 287 288 290 291 293 295 296 297 297 297 297 297 297 297 299 300 301 301 300 300 300 300 301 302 303 303 304 305 306 306 306 307 307 308 309 310 311 311 311 310 309 307 307 307 308 309 310 310 311 311 312 313 314 315 316 317 318 318 319 318 317 316 315
271 271 272 272 272 272 273 274 275 276 278 279 280 281 282 283 284 285 286 288 288 289 290 292 293 294 295 296 296 296 296 296 296 296 296 298 299 300 300 299 299 299 300 300 301 302 303 303 304 305 306 306 306 307 308 308 309 310 311 311 311 309 307 307 307 308 308 309 310 310 311 312 312 313 314 315 316 317 318 318 319 318 317 316 316
271 272 272 272 272 272 273 274 276 277 279 280 281 283 284 284 284 285 287 290 291 292 293 294 295 295 295 295 295 294 294 294 295 296 297 298 299 299 298 298 298 299 299 300 301 302 302 303 304 305 305 306 306 307 308 309 309 310 310 311 310 308 307 307 307 308 309 310 310 310 311 312 313 313 315 315 316 317 317 317 318 318 318 317 317
270 271 271 271 271 272 273 274 276 278 280 282 284 286 286 285 284 285 287 291 293 294 295 295 294 294 293 292 291 292 293 294 295 296 297 298 298 297 297 297 298 298 299 300 301 302 302 303 304 305 305 306 306 307 307 308 309 310 310 309 308 307 307 307 308 308 309 309 310 310 311 312 313 313 314 315 315 316 316 316 317 317 317 317 317
270 270 270 270 271 272 273 275 278 280 281 284 286 286 287 286 284 285 287 290 292 294 294 293 292 292 291 289 289 290 292 293 295 296 297 296 296 296 296 297 298 298 299 300 301 302 303 303 304 305 305 305 306 306 307 308 308 309 309 308 307 306 306 307 307 308 308 309 310 310 311 312 313 313 313 313 314 315 314 314 315 316 316 316 317
272 272 272 272 272 274 275 277 279 281 283 285 286 286 287 288 288 287 286 285 287 292 294 292 291 289 287 286 286 289 291 293 294 295 295 295 295 296 296 297 298 299 299 300 301 302 302 303 304 304 304 304 305 306 306 307 308 308 308 306 306 305 305 306 306 307 308 308 309 310 311 311 312 312 311 312 313 313 313 313 313 314 315 315 315
273 273 273 274 275 276 277 278 280 282 284 285 286 286 287 288 286 284 282 283 287 292 293 290 287 285 283 283 285 289 291 292 293 294 294 294 295 295 296 297 298 299 299 300 301 302 302 303 303 303 303 304 305 305 306 307 307 307 306 305 305 305 305 306 306 307 307 308 309 310 310 310 311 310 310 311 312 311 311 312 312 313 314 314 314
277 277 277 277 277 278 279 280 281 283 284 284 284 283 282 282 281 281 282 285 288 289 288 286 283 282 281 283 286 290 291 291 292 293 293 294 295 296 296 297 298 298 299 300 300 301 302 302 302 302 302 303 304 304 305 306 306 306 305 304 304 304 305 306 306 306 307 308 309 310 309 309 309 309 309 310 310 310 311 311 311 311 312 313 313
281 281 281 281 281 281 281 281 281 281 282 281 280 279 279 280 282 283 284 285 284 284 285 285 283 281 281 284 287 290 291 291 292 292 293 294 295 295 296 297 297 298 299 299 300 300 301 301 301 301 302 303 303 304 304 305 305 304 304 303 303 304 305 305 306 306 307 308 309 309 308 308 308 309 309 308 309 309 310 310 310 310 312 313 313
283 283 283 283 282 281 280 279 278 277 277 277 278 279 281 282 282 282 282 283 283 285 286 285 283 281 282 284 287 289 290 291 292 292 293 293 294 295 296 296 297 297 298 298 299 299 300 300 300 301 302 302 303 303 303 304 304 303 303 302 302 303 305 305 305 306 307 307 308 308 307 307 308 308 308 307 308 309 309 309 310 311 312 313 313
283 283 283 282 281 280 279 278 277 276 277 279 280 281 281 280 280 281 283 283 284 285 286 284 283 281 282 285 287 289 290 291 291 292 292 293 293 294 295 295 296 297 297 298 298 298 298 299 299 300 301 302 302 302 302 303 303 302 302 301 302 304 305 304 305 306 306 306 307 307 306 307 307 307 307 307 307 308 309 309 310 310 311 312 312
281 281 281 280 280 279 278 278 279 281 282 281 280 279 279 280 281 282 283 283 283 283 283 283 282 282 283 286 288 290 291 291 291 291 291 292 293 293 294 294 295 296 297 297 297 297 298 298 299 300 301 301 301 301 302 302 302 301 301 301 303 304 304 304 304 305 305 305 306 306 306 306 307 307 307 307 307 307 308 309 309 309 310 311 311
280 280 281 281 281 281 280 281 282 282 280 279 278 278 279 280 281 281 282 282 282 282 282 282 282 283 285 287 289 290 291 290 290 290 291 291 292 293 293 294 295 296 295 295 295 296 297 298 299 299 300 300 301 301 301 301 301 301 301 302 303 304 303 303 304 304 304 304 305 305 305 305 305 306 306 306 306 307 307 308 308 309 310 310 310
279 280 281 282 282 282 282 282 280 279 278 278 278 278 278 279 279 280 282 282 283 282 282 282 282 285 287 289 290 290 290 289 289 290 291 292 292 293 293 294 295 294 294 294 295 296 297 297 298 299 300 300 300 300 300 300 301 301 302 303 303 303 303 303 303 303 303 303 303 304 305 304 304 304 304 304 305 306 306 307 308 309 309 309 309
280 280 281 280 280 280 279 278 277 276 276 276 275 276 277 279 280 282 283 283 282 282 281 282 284 287 289 289 290 289 289 289 290 290 291 292 292 293 293 293 293 293 293 293 294 295 296 297 298 298 299 299 299 299 300 300 301 301 302 302 302 302 302 302 303 303 302 301 302 304 303 303 303 303 303 304 304 305 306 307 307 308 308 308 308
279 279 278 277 276 276 275 274 274 274 274 274 275 276 278 279 280 281 280 280 280 281 283 285 287 289 289 289 289 289 289 290 290 291 291 292 292 292 292 292 292 292 292 294 295 296 296 297 297 297 298 298 299 299 300 300 300 301 301 301 301 301 300 301 302 302 300 300 301 302 302 302 302 302 302 303 303 304 305 306 306 306 307 307 307
277 276 276 275 274 272 272 272 272 273 273 274 275 276 276 277 277 277 277 279 281 284 286 288 288 289 289 289 289 289 290 290 290 290 291 291 291 292 292 292 292 292 293 294 295 296 296 296 296 297 297 298 299 300 300 300 300 300 300 299 299 299 299 300 301 300 299 300 301 301 301 301 301 301 302 302 303 303 304 305 305 305 305 305 306
275 274 274 273 272 270 270 270 271 272 272 273 273 273 273 274 275 277 279 282 285 287 288 288 288 289 289 289 289 289 289 289 290 290 290 290 291 291 292 292 293 293 294 295 295 296 296 296 296 297 298 299 299 300 300 299 299 299 299 299 298 298 298 299 300 299 299 300 300 300 299 299 298 299 301 301 302 302 303 303 303 303 304 304 305
273 272 271 270 270 269 269 270 271 272 271 271 272 272 273 276 278 281 284 286 287 288 288 288 288 289 289 289 289 288 288 288 289 289 289 290 290 291 292 293 294 294 295 295 296 295 296 296 297 298 299 299 299 299 299 298 297 297 297 297 297 297 298 299 299 298 299 299 299 298 298 298 298 298 299 300 300 301 301 301 301 301 302 303 304
271 271 270 269 269 270 270 270 270 270 270 271 272 275 278 281 284 286 287 288 288 288 288 288 288 288 288 288 287 287 287 288 288 288 289 289 290 291 292 293 294 294 295 296 296 296 296 297 297 298 298 298 298 298 297 296 296 296 297 297 297 297 298 298 298 298 298 298 298 298 298 298 297 298 298 298 299 299 298 299 299 299 300 301 303
272 272 271 270 269 269 269 269 269 270 272 275 278 281 283 286 287 287 288 288 288 287 287 287 287 287 287 287 287 287 287 287 287 288 289 290 291 292 293 294 294 295 295 296 296 296 297 298 298 298 298 297 297 296 296 295 295 295 296 296 296 297 297 297 297 298 298 298 298 298 298 297 297 297 297 297 297 296 296 296 297 297 298 299 301
273 272 270 269 269 269 269 271 273 275 277 280 283 285 286 287 287 287 287 286 286 286 286 286 286 286 286 286 286 287 287 288 288 289 290 291 292 293 293 294 294 295 295 295 295 296 297 298 298 298 297 297 296 295 295 294 294 295 295 295 296 296 296 296 297 297 297 296 296 296 297 296 296 296 295 295 294 294 294 295 295 295 296 297 299
272 270 269 269 270 271 272 274 277 279 281 283 284 285 285 285 285 285 285 285 285 285 286 286 286 286 287 287 287 288 288 289 290 291 292 292 293 294 294 294 294 294 294 294 295 296 296 297 297 296 296 295 295 295 295 294 294 295 295 295 296 296 296 296 296 295 295 295 295 296 296 296 295 295 293 293 293 293 293 294 294 295 295 296 298
272 272 272 273 274 275 277 278 280 281 282 282 283 283 283 283 284 284 284 285 285 285 286 286 286 286 287 287 288 289 289 290 291 293 293 294 294 294 294 293 293 293 293 293 294 294 295 295 295 295 295 294 295 295 295 295 295 296 296 296 296 296 295 295 295 295 294 294 295 295 295 295 294 293 292 292 292 292 293 293 293 294 294 295 296
276 277 277 278 279 280 280 281 281 281 281 281 282 282 283 283 284 284 284 285 285 285 285 285 286 287 287 288 290 291 292 293 294 295 295 295 294 294 293 292 292 292 292 292 293 294 294 294 294 294 294 294 294 295 295 295 296 296 296 296 296 296 296 296 295 295 295 295 295 295 294 294 293 292 292 292 291 291 291 291 291 292 292 293 294
279 280 280 280 281 281 281 281 281 281 281 282 282 283 283 283 284 284 284 284 285 285 286 287 288 289 290 292 293 294 295 295 295 295 295 294 294 293 292 292 292 292 292 292 293 293 294 294 294 293 293 294 294 295 295 295 296 296 296 296 296 296 296 296 295 295 295 295 295 294 294 293 292 292 291 290 290 289 289 289 289 290 290 292 292
280 280 280 281 281 281 281 281 281 281 282 282 283 283 283 284 284 285 285 286 286 287 288 289 291 292 293 294 295 295 296 296 296 295 294 294 293 292 292 292 292 292 293 293 293 293 293 292 292 292 293 293 294 295 295 296 296 296 296 296 296 296 296 295 295 295 295 295 294 293 293 292 291 290 289 288 288 287 287 287 288 288 289 290 290
280 280 280 280 280 280 281 281 281 282 282 283 283 284 284 285 286 286 287 288 288 289 290 291 292 293 294 295 295 296 296 296 296 296 295 294 293 292 292 292 292 293 293 293 293 293 292 292 292 293 293 293 294 294 295 295 296 296 296 296 296 296 295 295 295 295 294 294 293 293 292 291 290 289 288 286 286 285 285 285 286 286 287 288 289
279 279 279 280 280 281 281 282 282 283 283 284 285 285 286 287 287 288 289 289 290 291 291 292 293 294 295 296 296 297 297 297 297 296 295 294 294 293 292 292 292 293 293 293 293 293 293 293 293 294 294 295 295 295 295 295 295 295 295 295 295 295 295 294 294 294 293 292 292 291 290 289 287 286 285 284 284 283 283 283 283 284 285 286 287
279 280 281 281 281 282 282 283 283 284 285 286 286 287 287 288 289 289 290 290 291 291 292 293 293 294 295 296 297 297 297 297 296 296 295 295 294 293 293 293 293 293 293 293 293 293 294 294 295 295 295 296 296 296 296 296 296 296 296 295 295 295 295 294 293 293 292 291 290 289 288 287 285 284 283 282 282 281 281 281 281 281 282 283 285
280 281 282 282 282 283 283 284 285 285 286 287 287 288 288 289 289 290 290 291 292 292 293 294 295 296 296 296 296 296 296 296 296 296 295 294 294 293 293 293 293 293 293 293 294 294 295 295 296 296 296 296 297 297 297 297 297 297 296 296 296 295 294 294 293 292 291 290 289 288 287 285 284 282 282 281 281 280 280 279 279 279 280 281 282
281 282 282 283 283 284 284 285 286 286 287 287 288 288 289 289 290 290 291 292 293 294 295 295 296 296 296 296 296 296 296 296 295 295 294 294 293 293 293 293 293 293 293 294 294 294 295 295 296 296 296 297 297 297 297 298 297 297 297 296 295 295 294 293 292 291 290 289 288 287 285 284 282 281 281 281 281 280 279 279 278 278 279 280 281
282 283 283 283 284 285 285 286 286 287 287 288 288 289 289 290 291 292 293 294 295 295 296 296 296 296 296 296 296 296 296 295 295 295 294 293 293 293 292 293 293 293 294 294 294 295 295 295 296 296 296 297 297 298 298 297 297 297 296 295 295 294 293 292 291 290 289 288 287 285 284 282 281 281 281 281 280 279 278 277 277 277 277 278 279
283 283 284 285 285 286 286 287 287 288 288 289 289 290 291 292 293 294 295 295 295 295 295 295 295 295 296 296 296 296 296 295 295 294 294 294 293 293 293 293 294 294 294 295 295 295 296 296 296 297 297 298 298 298 297 297 297 296 295 295 294 294 293 292 291 290 289 287 286 284 283 281 280 280 280 279 278 277 276 275 275 275 275 275 276
284 284 285 286 286 287 288 288 288 289 290 290 292 293 294 295 295 296 295 295 295 295 295 295 296 296 296 296 296 296 295 295 294 294 294 294 293 294 294 294 294 295 295 295 296 296 297 297 298 298 298 298 298 298 298 297 297 296 296 296 295 294 293 292 291 289 288 287 285 283 282 281 280 279 278 276 275 273 272 272 272 272 272 272 273
285 286 287 287 288 288 289 289 290 291 292 293 294 295 295 296 296 295 295 295 295 295 296 296 296 296 296 296 296 296 295 294 294 294 293 293 293 293 293 294 294 295 295 296 296 297 298 298 298 299 299 299 298 298 298 298 298 298 297 296 296 294 293 292 290 289 288 287 285 283 281 279 277 275 273 272 270 269 268 268 268 268 267 268 269
287 288 288 289 289 290 290 291 293 294 294 295 295 295 295 295 295 295 295 296 296 296 297 297 297 297 297 296 296 296 295 294 294 293 293 293 293 293 294 294 295 295 296 297 297 298 298 299 299 299 299 299 299 299 299 299 299 299 298 297 297 296 295 294 292 291 289 287 285 283 279 276 272 269 266 266 265 264 264 264 263 263 264 265 266
289 289 289 290 291 291 292 294 294 295 295 295 295 295 295 295 296 296 297 297 298 298 298 298 298 297 297 297 296 296 295 294 293 293 293 293 294 294 295 295 296 296 297 298 298 299 300 300 300 300 300 300 300 301 301 301 301 301 300 300 299 298 297 296 294 292 290 287 284 281 276 271 266 262 260 260 260 259 258 259 259 260 261 261 261
290 290 291 292 293 293 294 295 295 295 295 295 295 296 296 297 298 298 299 299 299 299 299 298 298 297 297 297 296 296 295 294 294 294 295 295 295 296 296 296 296 297 298 299 300 301 301 301 301 301 301 302 302 303 304 304 304 304 303 303 302 300 299 298 296 294 291 287 282 277 271 264 258 255 254 254 253 252 253 254 256 257 256 256 256
291 292 293 293 294 294 294 294 294 295 295 296 297 298 299 299 300 300 300 300 300 300 299 298 298 297 297 297 296 296 296 295 295 295 295 295 295 295 296 296 297 298 299 300 301 302 302 302 302 302 303 304 305 306 307 307 307 306 306 306 305 303 302 302 300 297 293 287 280 273 264 256 252 250 248 247 245 245 248 251 252 251 249 249 253
292 293 294 294 294 294 294 294 295 296 297 298 299 300 300 301 301 301 301 301 300 299 299 298 297 297 297 296 296 296 296 295 295 295 295 295 295 296 296 297 298 300 301 301 302 302 302 302 302 304 305 306 308 309 309 309 309 309 310 311 310 308 307 308 306 301 295 288 278 267 259 252 248 244 240 238 238 241 244 246 244 242 242 246 254
293 293 293 293 293 294 295 296 297 298 299 300 301 301 302 302 302 302 301 301 300 299 298 298 297 297 296 295 295 295 295 294 295 295 295 295 295 296 297 299 300 301 301 301 301 301 301 301 303 305 307 309 311 312 312 312 312 313 316 319 318 315 313 313 311 306 300 291 279 266 255 247 239 233 230 230 234 237 238 236 233 234 240 250 258
292 292 293 294 295 296 297 298 299 300 301 302 302 303 303 303 302 302 301 300 299 299 298 298 297 296 295 294 294 294 294 294 295 295 295 295 296 297 299 300 301 301 300 300 299 298 298 300 303 306 309 312 315 316 317 317 317 319 323 328 329 326 321 318 316 312 304 293 277 260 246 234 226 223 223 225 228 227 225 225 227 235 245 254 260
292 293 294 295 297 298 299 299 300 301 302 303 303 303 303 303 302 301 300 299 299 299 298 298 297 296 295 295 295 295 295 294 294 294 295 295 297 298 300 300 300 299 298 297 296 295 295 298 302 306 310 315 320 322 323 324 324 326 330 335 339 338 334 328 323 318 310 294 269 245 228 219 216 217 217 216 214 213 215 221 231 240 247 253 258
293 294 296 297 298 299 300 300 301 302 303 304 304 303 303 302 301 300 300 299 299 299 299 298 297 296 296 296 295 295 295 295 295 295 296 297 298 299 300 299 298 297 295 293 291 290 292 295 300 304 310 316 322 327 329 331 332 334 337 341 344 347 346 343 338 332 321 295 251 223 215 212 209 205 201 200 203 209 218 227 234 239 243 249 257
Height
5755 5754 5754 5753 5753 5753 5752 5752 5751 5751 5750 5750 5749 5748 5746 5745 5743 5741 5739 5737 5735 5733 5731 5729 5727 5724 5721 5719 5716 5713 5710 5707 5704 5701 5698 5695 5693 5690 5687 5684 5680 5677 5675 5672 5669 5664 5660 5656 5653 5649 5645 5640 5635 5630 5626 5621 5617 5613 5609 5604 5600 5596 5591 5587 5584 5581 5573 5567 5563 5558 5555 5552 5547 5542 5538 5534 5528 5522 5516 5511 5506 5501 5496 5491 5486
5749 5749 5748 5748 5748 5747 5747 5746 5746 5746 5745 5744 5743 5742 5740 5738 5736 5734 5732 5730 5728 5726 5724 5721 5719 5717 5714 5711 5708 5705 5702 5699 5696 5694 5691 5688 5685 5682 5679 5675 5672 5669 5666 5663 5660 5655 5651 5648 5644 5640 5636 5631 5626 5621 5616 5611 5607 5603 5599 5595 5590 5585 5581 5577 5573 5572 5568 5561 5555 5550 5546 5542 5539 5534 5530 5526 5521 5516 5510 5504 5499 5494 5488 5484 5479
5744 5743 5743 5742 5742 5741 5741 5741 5741 5740 5739 5738 5737 5735 5733 5731 5729 5727 5725 5723 5721 5719 5716 5713 5711 5709 5706 5703 5700 5697 5694 5692 5689 5686 5683 5680 5677 5674 5670 5667 5664 5660 5657 5654 5650 5646 5643 5639 5635 5630 5626 5621 5616 5611 5606 5602 5598 5593 5589 5584 5579 5574 5570 5567 5563 5561 5559 5555 5549 5543 5538 5534 5530 5525 5521 5517 5513 5509 5503 5498 5492 5486 5481 5476 5472
5739 5738 5738 5737 5737 5736 5736 5736 5735 5734 5733 5731 5730 5728 5726 5724 5722 5720 5718 5716 5713 5711 5708 5706 5703 5701 5698 5695 5693 5690 5687 5684 5681 5678 5675 5672 5669 5666 5662 5659 5655 5652 5649 5645 5641 5637 5634 5630 5625 5620 5616 5611 5606 5601 5597 5593 5588 5584 5579 5574 5570 5565 5560 5556 5554 5551 5549 5547 5542 5536 5531 5526 5522 5517 5513 5510 5506 5501 5496 5490 5485 5480 5474 5468 5464
5733 5733 5733 5732 5731 5731 5730 5729 5728 5727 5726 5724 5722 5720 5719 5717 5715 5713 5711 5708 5705 5703 5700 5698 5696 5693 5691 5688 5685 5682 5679 5676 5673 5670 5667 5664 5661 5657 5654 5651 5647 5644 5640 5636 5632 5628 5625 5620 5615 5610 5606 5601 5596 5592 5588 5584 5579 5575 5570 5565 5560 5556 5551 5547 5544 5542 5539 5537 5533 5528 5523 5518 5514 5509 5504 5501 5498 5494 5489 5483 5478 5473 5468 5463 5457
5728 5728 5727 5726 5725 5725 5724 5723 5721 5720 5718 5716 5715 5713 5712 5710 5708 5706 5703 5700 5698 5695 5693 5691 5688 5686 5683 5681 5678 5674 5671 5668 5665 5662 5659 5656 5653 5649 5646 5643 5639 5635 5631 5627 5623 5619 5615 5611 5606 5601 5596 5591 5586 5582 5578 5574 5570 5566 5561 5556 5552 5547 5543 5539 5536 5533 5529 5526 5523 5520 5515 5510 5505 5501 5496 5492 5489 5485 5482 5478 5472 5465 5460 5457 5453
5722 5722 5721 5720 5719 5718 5717 5716 5714 5713 5711 5709 5708 5706 5705 5703 5701 5699 5696 5693 5691 5688 5686 5683 5681 5678 5675 5673 5669 5666 5663 5660 5657 5654 5651 5648 5645 5641 5638 5635 5630 5626 5622 5618 5613 5609 5606 5602 5597 5592 5586 5581 5576 5572 5569 5565 5561 5557 5552 5548 5543 5539 5534 5530 5527 5524 5521 5517 5514 5510 5506 5502 5497 5492 5488 5483 5479 5475 5471 5469 5467 5461 5454 5449 5445
5717 5716 5715 5714 5713 5712 5711 5709 5707 5706 5704 5703 5701 5700 5698 5696 5693 5691 5689 5686 5683 5681 5678 5676 5673 5671 5667 5664 5661 5658 5655 5652 5649 5646 5643 5640 5636 5633 5630 5626 5621 5617 5613 5608 5604 5600 5596 5592 5588 5582 5577 5572 5567 5563 5559 5555 5552 5547 5543 5539 5534 5530 5526 5522 5519 5515 5512 5509 5505 5501 5498 5494 5488 5484 5480 5475 5471 5467 5461 5457 5456 5453 5449 5444 5438
5711 5709 5709 5708 5707 5705 5704 5702 5701 5699 5698 5696 5694 5693 5691 5689 5686 5684 5681 5678 5676 5673 5671 5668 5665 5663 5660 5657 5654 5651 5648 5644 5641 5638 5634 5631 5628 5625 5621 5617 5612 5608 5603 5599 5595 5590 5586 5582 5578 5573 5568 5563 5558 5554 5550 5546 5543 5538 5534 5530 5526 5522 5518 5514 5510 5507 5503 5500 5497 5492 5489 5486 5480 5475 5472 5468 5463 5460 5455 5449 5445 5442 5439 5437 5432
5704 5703 5702 5701 5700 5698 5697 5695 5694 5692 5691 5689 5687 5685 5684 5681 5679 5676 5673 5671 5669 5666 5663 5661 5658 5655 5652 5649 5646 5643 5640 5636 5632 5629 5626 5623 5620 5616 5612 5608 5603 5599 5594 5590 5585 5581 5576 5573 5569 5564 5559 5554 5550 5546 5542 5539 5535 5531 5526 5522 5517 5513 5510 5506 5502 5498 5495 5492 5488 5484 5481 5478 5472 5467 5464 5460 5456 5452 5447 5442 5438 5434 5430 5427 5427
5698 5697 5696 5694 5693 5691 5690 5689 5687 5685 5683 5682 5680 5678 5676 5673 5671 5669 5667 5665 5662 5659 5656 5653 5651 5648 5645 5642 5639 5636 5632 5627 5623 5620 5618 5614 5611 5607 5603 5599 5594 5590 5585 5581 5576 5571 5567 5563 5559 5554 5550 5545 5541 5538 5535 5531 5527 5523 5519 5515 5511 5506 5502 5499 5495 5491 5487 5484 5481 5477 5473 5470 5465 5460 5456 5453 5449 5445 5440 5435 5431 5427 5422 5418 5417
5691 5690 5689 5687 5686 5685 5684 5682 5680 5678 5676 5675 5673 5670 5667 5665 5664 5662 5661 5658 5655 5652 5649 5646 5643 5640 5637 5634 5631 5627 5623 5618 5614 5611 5608 5605 5601 5598 5594 5589 5585 5581 5576 5572 5567 5562 5558 5554 5550 5545 5541 5537 5534 5530 5527 5523 5519 5516 5512 5507 5504 5500 5496 5492 5488 5484 5481 5477 5474 5470 5465 5462 5458 5453 5448 5445 5443 5438 5434 5429 5424 5419 5415 5410 5407
5685 5684 5683 5681 5680 5679 5677 5675 5673 5671 5669 5667 5664 5662 5660 5659 5657 5655 5653 5650 5647 5644 5640 5637 5634 5631 5628 5625 5622 5618 5614 5609 5605 5602 5598 5595 5592 5588 5584 5580 5576 5572 5567 5563 5558 5554 5550 5545 5541 5537 5532 5529 5526 5522 5519 5515 5511 5508 5504 5500 5496 5492 5488 5484 5480 5477 5474 5470 5468 5464 5459 5454 5451 5446 5441 5437 5435 5432 5427 5423 5418 5412 5409 5405 5400
5677 5677 5676 5674 5673 5672 5669 5668 5665 5663 5661 5658 5656 5655 5654 5652 5650 5648 5645 5642 5638 5635 5631 5628 5626 5623 5620 5616 5613 5609 5605 5600 5595 5592 5588 5585 5582 5579 5575 5571 5568 5564 5559 5554 5549 5545 5541 5537 5533 5529 5525 5521 5518 5514 5511 5508 5504 5501 5497 5493 5489 5485 5480 5476 5472 5468 5465 5462 5460 5457 5452 5447 5443 5439 5434 5430 5427 5424 5420 5416 5412 5407 5403 5399 5394
5669 5669 5668 5667 5665 5664 5661 5659 5657 5655 5653 5651 5650 5649 5647 5645 5642 5639 5636 5632 5629 5626 5624 5621 5618 5615 5611 5607 5604 5601 5597 5591 5586 5582 5579 5575 5572 5570 5567 5562 5559 5555 5550 5545 5541 5538 5533 5529 5525 5521 5517 5513 5509 5506 5503 5500 5497 5494 5490 5486 5482 5478 5474 5469 5464 5460 5457 5453 5451 5448 5444 5439 5435 5431 5427 5423 5420 5416 5413 5409 5404 5400 5397 5393 5389
5661 5660 5659 5658 5657 5655 5652 5650 5648 5647 5646 5644 5643 5641 5639 5636 5633 5630 5627 5624 5622 5619 5617 5614 5610 5606 5602 5599 5596 5593 5588 5582 5576 5572 5569 5566 5563 5561 5558 5554 5550 5547 5543 5538 5534 5530 5526 5521 5516 5513 5510 5506 5500 5497 5495 5492 5489 5486 5483 5479 5475 5471 5467 5461 5456 5453 5450 5446 5443 5439 5435 5431 5427 5424 5420 5416 5412 5409 5406 5402 5396 5392 5389 5386 5383
5652 5651 5650 5649 5648 5646 5644 5642 5641 5639 5638 5637 5635 5633 5630 5627 5624 5621 5619 5617 5614 5612 5608 5605 5601 5597 5594 5590 5587 5584 5579 5573 5567 5563 5560 5557 5554 5552 5549 5545 5541 5538 5535 5530 5526 5522 5518 5513 5509 5505 5502 5498 5492 5488 5486 5484 5482 5479 5475 5471 5468 5465 5460 5454 5450 5446 5442 5439 5435 5431 5427 5424 5420 5416 5412 5408 5405 5401 5398 5394 5389 5385 5382 5379 5376
5644 5643 5642 5640 5639 5638 5636 5635 5633 5632 5631 5629 5628 5625 5622 5619 5616 5614 5611 5608 5606 5602 5599 5596 5592 5589 5585 5581 5578 5575 5571 5565 5559 5554 5551 5547 5544 5542 5540 5536 5533 5530 5526 5522 5518 5514 5511 5506 5501 5497 5494 5490 5485 5480 5477 5475 5473 5471 5467 5463 5461 5458 5452 5446 5443 5439 5435 5431 5428 5423 5419 5415 5412 5408 5405 5401 5397 5393 5390 5387 5383 5378 5375 5371 5368
5636 5635 5633 5632 5631 5630 5629 5628 5626 5625 5624 5622 5620 5617 5614 5611 5608 5605 5602 5600 5597 5593 5590 5587 5584 5580 5576 5573 5570 5566 5562 5557 5550 5546 5542 5538 5535 5533 5530 5527 5525 5523 5518 5514 5511 5507 5504 5499 5494 5489 5485 5482 5477 5473 5469 5466 5464 5462 5458 5455 5453 5449 5444 5439 5437 5432 5427 5423 5420 5416 5412 5408 5404 5401 5397 5394 5390 5387 5383 5380 5376 5372 5369 5365 5360
5628 5627 5626 5625 5623 5622 5621 5620 5619 5618 5616 5613 5611 5608 5606 5603 5600 5597 5594 5591 5588 5585 5581 5578 5575 5571 5568 5564 5561 5558 5554 5548 5542 5537 5533 5528 5525 5523 5520 5519 5517 5513 5510 5507 5504 5501 5497 5492 5487 5481 5477 5473 5469 5465 5462 5458 5455 5453 5449 5446 5443 5440 5435 5432 5429 5425 5420 5416 5412 5409 5406 5401 5397 5394 5391 5387 5383 5380 5377 5373 5369 5365 5362 5358 5354
5621 5620 5618 5617 5615 5615 5614 5612 5611 5609 5607 5605 5603 5600 5597 5594 5591 5588 5585 5582 5579 5576 5573 5569 5566 5563 5559 5556 5552 5549 5544 5540 5534 5529 5524 5519 5515 5512 5511 5510 5507 5503 5500 5498 5496 5494 5490 5485 5480 5475 5469 5465 5461 5457 5455 5451 5447 5444 5441 5438 5434 5430 5426 5423 5420 5417 5412 5408 5404 5401 5398 5394 5390 5387 5384 5381 5377 5373 5370 5366 5363 5359 5355 5352 5348
5612 5611 5610 5609 5608 5607 5606 5604 5603 5601 5599 5596 5594 5591 5589 5586 5583 5580 5576 5573 5570 5567 5564 5560 5557 5554 5551 5547 5544 5539 5534 5530 5526 5520 5515 5510 5506 5503 5501 5500 5497 5493 5490 5489 5487 5485 5481 5477 5472 5468 5462 5458 5453 5449 5446 5443 5439 5436 5433 5430 5426 5422 5418 5415 5413 5409 5404 5400 5396 5394 5390 5386 5383 5379 5377 5374 5370 5367 5363 5360 5356 5352 5348 5345 5341
5604 5602 5601 5600 5599 5598 5597 5596 5595 5593 5590 5588 5585 5583 5580 5577 5574 5570 5566 5563 5560 5557 5554 5551 5548 5546 5542 5538 5534 5530 5524 5520 5516 5512 5507 5502 5498 5494 5491 5489 5486 5482 5480 5480 5478 5475 5471 5468 5464 5459 5455 5451 5447 5442 5437 5433 5430 5428 5425 5421 5417 5413 5409 5407 5405 5401 5396 5392 5389 5386 5382 5378 5375 5372 5369 5366 5363 5359 5356 5353 5349 5345 5342 5338 5334
5595 5594 5593 5592 5591 5590 5589 5587 5585 5583 5581 5578 5576 5573 5570 5566 5563 5560 5556 5553 5551 5548 5545 5541 5539 5536 5533 5529 5524 5519 5515 5511 5507 5503 5499 5495 5491 5486 5481 5478 5475 5472 5470 5470 5468 5464 5461 5458 5454 5450 5447 5443 5439 5435 5430 5426 5421 5418 5415 5412 5408 5404 5400 5398 5395 5391 5387 5384 5381 5378 5375 5371 5366 5363 5361 5358 5355 5352 5349 5346 5342 5339 5335 5332 5328
5586 5585 5584 5583 5582 5581 5580 5578 5576 5574 5571 5568 5565 5562 5559 5556 5553 5550 5547 5544 5541 5538 5535 5531 5529 5526 5523 5519 5515 5510 5505 5502 5498 5494 5490 5487 5483 5478 5473 5469 5465 5460 5458 5458 5457 5454 5451 5448 5444 5441 5438 5434 5430 5426 5423 5418 5414 5410 5407 5403 5398 5395 5392 5389 5385 5381 5378 5376 5373 5370 5367 5363 5358 5356 5353 5350 5347 5344 5341 5339 5335 5332 5328 5326 5323
5578 5577 5576 5575 5574 5572 5571 5568 5566 5564 5560 5557 5555 5551 5548 5546 5543 5540 5537 5534 5531 5528 5524 5521 5518 5515 5513 5510 5505 5501 5497 5494 5490 5486 5481 5477 5474 5470 5465 5461 5457 5451 5447 5446 5444 5441 5439 5437 5435 5432 5429 5425 5421 5417 5414 5410 5406 5402 5398 5394 5389 5386 5383 5379 5376 5372 5369 5366 5364 5361 5358 5354 5351 5347 5345 5342 5339 5336 5333 5332 5329 5325 5321 5319 5317
5569 5568 5567 5566 5564 5563 5561 5558 5555 5553 5550 5547 5544 5542 5539 5536 5533 5530 5527 5524 5521 5518 5514 5512 5509 5506 5502 5499 5495 5492 5488 5485 5481 5477 5473 5469 5465 5461 5457 5453 5448 5443 5439 5436 5432 5429 5427 5424 5422 5420 5418 5415 5412 5408 5405 5401 5397 5393 5390 5385 5380 5376 5373 5369 5366 5362 5359 5356 5354 5351 5349 5346 5342 5339 5336 5333 5331 5328 5325 5324 5322 5318 5314 5312 5310
5561 5559 5558 5557 5555 5553 5551 5548 5545 5543 5540 5538 5535 5532 5529 5527 5523 5521 5518 5514 5511 5508 5505 5502 5499 5495 5493 5489 5486 5483 5479 5475 5471 5468 5464 5461 5457 5453 5448 5444 5439 5434 5430 5426 5422 5419 5416 5413 5410 5408 5405 5403 5401 5398 5396 5392 5389 5385 5382 5378 5373 5368 5364 5360 5356 5353 5350 5347 5344 5342 5340 5337 5334 5331 5327 5325 5323 5319 5316 5315 5314 5311 5308 5305 5303
5552 5550 5549 5548 5545 5543 5541 5539 5536 5534 5531 5529 5526 5523 5520 5517 5514 5511 5508 5505 5502 5498 5495 5492 5489 5485 5482 5479 5476 5473 5470 5466 5461 5458 5455 5452 5448 5444 5440 5436 5431 5426 5422 5417 5413 5411 5407 5404 5400 5397 5394 5391 5389 5387 5384 5381 5378 5375 5372 5368 5364 5360 5355 5351 5348 5345 5341 5338 5335 5333 5331 5328 5325 5322 5318 5316 5314 5311 5308 5306 5305 5302 5300 5298 5296
5542 5541 5539 5538 5536 5534 5532 5529 5527 5525 5522 5519 5516 5513 5510 5507 5504 5501 5498 5495 5492 5488 5485 5482 5478 5475 5472 5469 5465 5463 5460 5456 5452 5449 5445 5442 5438 5435 5431 5427 5422 5417 5412 5407 5404 5402 5398 5395 5392 5388 5384 5380 5378 5376 5373 5370 5367 5364 5361 5357 5353 5349 5345 5341 5338 5334 5330 5328 5326 5323 5321 5319 5316 5312 5309 5307 5305 5302 5299 5297 5296 5294 5292 5290 5289
5533 5531 5530 5528 5526 5524 5521 5519 5517 5514 5511 5509 5506 5503 5500 5497 5494 5491 5488 5485 5481 5478 5475 5472 5469 5465 5462 5459 5455 5452 5449 5446 5443 5439 5436 5432 5429 5425 5421 5417 5413 5408 5402 5398 5395 5392 5389 5385 5383 5379 5375 5371 5369 5366 5362 5358 5355 5353 5349 5345 5341 5337 5332 5329 5325 5321 5318 5317 5315 5312 5310 5308 5305 5302 5299 5297 5295 5293 5290 5288 5287 5285 5284 5282 5281
5523 5521 5519 5517 5515 5513 5511 5508 5506 5503 5501 5498 5495 5493 5490 5487 5484 5481 5478 5474 5471 5468 5465 5462 5458 5455 5452 5449 5445 5442 5439 5435 5432 5429 5425 5422 5418 5414 5410 5406 5402 5397 5392 5387 5385 5383 5380 5375 5373 5369 5365 5361 5359 5356 5352 5348 5345 5341 5337 5333 5330 5326 5321 5316 5312 5309 5306 5305 5302 5300 5298 5296 5294 5292 5289 5287 5286 5284 5282 5280 5278 5276 5275 5274 5273
5513 5511 5509 5507 5505 5503 5500 5498 5495 5493 5490 5488 5485 5482 5480 5476 5473 5470 5467 5464 5460 5457 5454 5451 5448 5445 5442 5439 5436 5432 5429 5426 5422 5418 5415 5411 5407 5404 5399 5394 5390 5385 5381 5376 5374 5372 5369 5366 5363 5360 5356 5352 5349 5345 5341 5338 5334 5330 5326 5322 5318 5314 5310 5305 5301 5297 5295 5293 5290 5288 5286 5284 5282 5281 5279 5277 5276 5275 5274 5272 5270 5268 5267 5266 5265
5503 5501 5499 5497 5494 5492 5490 5487 5485 5482 5480 5477 5474 5472 5469 5466 5463 5460 5457 5454 5450 5447 5444 5442 5439 5435 5432 5428 5426 5422 5419 5415 5412 5408 5404 5400 5397 5393 5388 5384 5380 5375 5370 5366 5363 5360 5358 5355 5352 5350 5346 5342 5339 5335 5332 5328 5323 5319 5315 5311 5306 5302 5298 5294 5290 5286 5283 5280 5278 5276 5274 5272 5271 5270 5269 5267 5266 5266 5265 5264 5262 5260 5259 5258 5257
5493 5491 5489 5487 5484 5482 5480 5477 5474 5472 5469 5467 5464 5462 5459 5456 5453 5450 5447 5444 5441 5438 5435 5433 5430 5427 5423 5419 5415 5412 5408 5405 5401 5396 5392 5388 5385 5381 5376 5373 5370 5366 5361 5356 5352 5349 5346 5343 5340 5337 5334 5330 5327 5324 5320 5316 5312 5308 5304 5300 5295 5291 5286 5283 5279 5275 5271 5268 5266 5264 5263 5261 5260 5259 5258 5257 5256 5256 5255 5254 5253 5252 5251 5250 5249
5483 5481 5479 5477 5474 5472 5470 5467 5465 5462 5460 5457 5455 5452 5449 5447 5444 5441 5438 5435 5431 5429 5426 5423 5421 5418 5414 5410 5406 5401 5397 5393 5389 5385 5381 5377 5373 5369 5365 5361 5358 5355 5351 5347 5343 5338 5335 5331 5327 5324 5321 5317 5314 5310 5306 5303 5299 5295 5291 5287 5282 5278 5274 5270 5267 5263 5259 5256 5254 5252 5251 5250 5248 5246 5245 5246 5246 5245 5245 5244 5243 5242 5242 5242 5241
5474 5471 5469 5467 5465 5462 5460 5458 5456 5453 5451 5448 5445 5443 5440 5437 5435 5432 5429 5426 5423 5419 5416 5413 5410 5407 5404 5400 5396 5392 5387 5382 5377 5372 5369 5365 5361 5357 5354 5350 5347 5344 5340 5336 5332 5328 5324 5319 5315 5312 5308 5304 5301 5297 5293 5289 5285 5280 5276 5272 5268 5264 5260 5256 5253 5250 5247 5244 5241 5240 5238 5237 5236 5233 5233 5234 5235 5234 5234 5233 5233 5233 5233 5232 5232
5464 5462 5460 5457 5455 5453 5451 5448 5446 5444 5441 5439 5436 5434 5431 5429 5426 5423 5420 5417 5414 5410 5407 5403 5399 5395 5391 5388 5385 5381 5376 5371 5366 5361 5357 5353 5350 5346 5342 5339 5335 5332 5329 5325 5321 5317 5314 5309 5305 5300 5296 5292 5288 5284 5280 5276 5271 5266 5262 5258 5254 5250 5246 5242 5239 5236 5234 5231 5229 5227 5226 5225 5223 5222 5222 5223 5224 5224 5224 5223 5223 5224 5224 5223 5223
5454 5453 5450 5448 5446 5444 5441 5439 5437 5435 5433 5430 5428 5425 5423 5420 5417 5414 5411 5408 5404 5401 5397 5393 5388 5384 5380 5375 5372 5369 5364 5358 5354 5350 5346 5342 5339 5335 5332 5328 5324 5321 5317 5313 5310 5306 5303 5299 5294 5290 5285 5281 5276 5272 5268 5263 5259 5254 5249 5245 5241 5237 5233 5229 5226 5223 5221 5219 5217 5215 5214 5212 5211 5211 5212 5213 5213 5214 5214 5214 5214 5215 5215 5215 5215
5445 5443 5441 5439 5437 5435 5433 5431 5428 5426 5424 5421 5419 5416 5414 5411 5408 5404 5401 5398 5394 5390 5386 5382 5377 5373 5368 5363 5360 5356 5351 5346 5342 5339 5335 5331 5327 5323 5320 5317 5313 5309 5306 5302 5298 5295 5291 5287 5282 5278 5274 5269 5264 5260 5256 5251 5246 5242 5236 5232 5228 5225 5221 5217 5213 5210 5208 5206 5205 5204 5202 5201 5201 5202 5203 5204 5204 5204 5205 5205 5206 5206 5207 5208 5208
5436 5434 5432 5430 5428 5426 5424 5422 5419 5417 5415 5412 5410 5407 5404 5401 5397 5394 5390 5386 5382 5378 5374 5370 5365 5361 5356 5351 5347 5344 5339 5335 5331 5327 5324 5320 5316 5312 5309 5305 5302 5298 5295 5291 5287 5284 5279 5275 5270 5266 5262 5257 5252 5248 5243 5239 5234 5230 5225 5220 5216 5213 5209 5206 5202 5198 5196 5194 5193 5192 5191 5191 5191 5193 5194 5194 5195 5195 5196 5197 5198 5199 5199 5200 5201
5427 5426 5424 5422 5420 5418 5416 5413 5411 5409 5406 5403 5400 5397 5394 5390 5387 5383 5379 5375 5370 5366 5362 5357 5353 5348 5344 5339 5335 5332 5328 5324 5320 5317 5313 5310 5307 5303 5299 5295 5291 5288 5284 5281 5278 5274 5269 5265 5260 5255 5250 5246 5241 5237 5232 5227 5223 5218 5214 5210 5206 5202 5198 5195 5191 5187 5185 5182 5181 5180 5180 5180 5181 5183 5184 5185 5186 5187 5188 5190 5191 5192 5193 5194 5195
5419 5417 5416 5413 5412 5409 5407 5405 5402 5399 5396 5393 5390 5387 5383 5379 5375 5371 5367 5363 5358 5354 5349 5344 5340 5336 5331 5327 5323 5319 5316 5312 5309 5306 5303 5300 5297 5293 5290 5285 5282 5278 5274 5271 5268 5264 5260 5255 5250 5245 5240 5235 5231 5227 5222 5217 5213 5208 5204 5200 5195 5191 5187 5183 5180 5176 5173 5171 5169 5169 5169 5169 5171 5173 5175 5176 5178 5179 5181 5183 5184 5186 5187 5189 5190
5411 5409 5407 5405 5403 5401 5398 5395 5393 5390 5386 5383 5380 5376 5372 5368 5363 5359 5355 5350 5345 5341 5336 5331 5327 5323 5319 5315 5312 5308 5305 5302 5299 5296 5293 5290 5286 5283 5279 5275 5272 5268 5264 5261 5258 5254 5250 5246 5241 5235 5230 5226 5222 5218 5213 5209 5205 5200 5195 5191 5186 5181 5177 5173 5169 5166 5163 5161 5159 5159 5159 5160 5162 5164 5167 5169 5171 5173 5175 5177 5179 5181 5182 5184 5185
5403 5401 5399 5396 5394 5392 5389 5386 5383 5380 5376 5373 5369 5365 5360 5356 5351 5347 5342 5337 5333 5328 5323 5319 5315 5312 5308 5305 5302 5298 5295 5292 5289 5286 5283 5279 5276 5273 5269 5266 5262 5259 5255 5252 5248 5245 5241 5236 5232 5227 5222 5217 5214 5210 5206 5201 5197 5192 5188 5183 5178 5172 5167 5163 5160 5157 5155 5153 5152 5151 5152 5153 5155 5158 5160 5163 5166 5168 5170 5172 5174 5176 5178 5180 5181
5394 5392 5390 5387 5385 5382 5379 5376 5373 5369 5366 5362 5357 5353 5349 5344 5339 5335 5330 5325 5321 5316 5312 5309 5305 5301 5298 5295 5292 5288 5285 5282 5279 5276 5273 5270 5266 5263 5260 5256 5253 5250 5246 5243 5239 5236 5232 5228 5224 5220 5216 5211 5207 5203 5199 5195 5191 5186 5181 5176 5171 5165 5160 5157 5154 5151 5149 5147 5147 5147 5147 5149 5151 5153 5156 5159 5161 5164 5166 5168 5171 5173 5175 5176 5178
5385 5383 5381 5378 5375 5372 5369 5366 5363 5359 5355 5350 5346 5342 5337 5332 5327 5323 5318 5314 5310 5306 5302 5299 5295 5292 5288 5285 5282 5279 5276 5272 5269 5266 5263 5260 5257 5254 5251 5248 5244 5241 5238 5235 5231 5228 5224 5221 5218 5214 5210 5206 5202 5198 5193 5189 5185 5181 5176 5170 5165 5160 5156 5153 5150 5147 5146 5144 5144 5144 5145 5146 5149 5151 5153 5156 5159 5161 5163 5166 5168 5170 5172 5173 5175
5376 5374 5371 5369 5366 5362 5359 5355 5352 5347 5343 5339 5334 5330 5325 5321 5316 5311 5307 5303 5299 5296 5292 5289 5285 5282 5279 5275 5272 5269 5266 5263 5260 5257 5254 5251 5248 5245 5242 5239 5236 5233 5230 5227 5224 5221 5218 5215 5213 5209 5206 5202 5198 5193 5189 5185 5181 5176 5172 5166 5161 5156 5153 5150 5148 5146 5144 5143 5143 5143 5144 5146 5148 5150 5152 5154 5157 5159 5161 5164 5166 5168 5170 5171 5172
5367 5364 5362 5359 5355 5352 5348 5344 5340 5336 5332 5328 5323 5319 5314 5309 5305 5301 5296 5292 5289 5285 5282 5279 5275 5272 5269 5265 5262 5259 5256 5253 5251 5248 5245 5242 5240 5237 5234 5231 5228 5225 5222 5220 5217 5215 5213 5210 5208 5205 5202 5198 5194 5190 5185 5181 5177 5173 5169 5164 5159 5155 5152 5149 5147 5146 5144 5144 5143 5144 5145 5146 5147 5149 5151 5154 5156 5158 5160 5162 5164 5166 5167 5169 5170
5357 5355 5352 5348 5345 5341 5338 5334 5330 5326 5322 5317 5313 5308 5304 5299 5295 5291 5287 5283 5279 5275 5272 5269 5265 5262 5259 5255 5253 5250 5247 5244 5242 5239 5236 5234 5231 5228 5226 5223 5220 5218 5216 5214 5212 5210 5208 5206 5204 5202 5199 5195 5191 5187 5183 5179 5175 5171 5167 5162 5158 5154 5151 5149 5147 5146 5145 5145 5145 5145 5145 5147 5148 5149 5151 5153 5155 5157 5160 5161 5163 5164 5166 5167 5168
5348 5344 5341 5338 5334 5331 5327 5323 5319 5315 5311 5306 5302 5298 5293 5289 5285 5281 5277 5273 5269 5266 5262 5259 5255 5252 5249 5246 5243 5241 5238 5236 5233 5231 5228 5225 5223 5220 5218 5215 5213 5211 5209 5208 5206 5205 5203 5202 5200 5198 5195 5192 5189 5185 5181 5177 5173 5169 5166 5162 5159 5155 5153 5150 5149 5148 5147 5146 5146 5146 5147 5148 5149 5150 5152 5154 5156 5158 5159 5160 5162 5163 5164 5165 5166